This is the latest recevied weather packets stored in our database for station/object LU2DKV-10. If no packets are shown the sender has not sent any weather packets the latest 10 day(s).
| Time | Temp. | Humidity | Pressure | Rain* | Wind** | Luminosity | Snow |
|---|---|---|---|---|---|---|---|
| 1777702819 | 15° C | 64% | 1018 hPa | - | - | 0 W/m² | - |
| 1777700998 | 15° C | 63% | 1019 hPa | - | - | 0 W/m² | - |
| 1777699175 | 15.56° C | 61% | 1018 hPa | - | - | 0 W/m² | - |
| 1777697354 | 15.56° C | 59% | 1017 hPa | - | - | 0 W/m² | - |
| 1777695531 | 16.11° C | 57% | 1017 hPa | - | - | 0 W/m² | - |
| 1777693709 | 16.11° C | 56% | 1016 hPa | - | - | 0 W/m² | - |
| 1777691887 | 16.67° C | 54% | 1016 hPa | - | - | 0 W/m² | - |
| 1777690065 | 17.22° C | 55% | 1016 hPa | - | - | 0 W/m² | - |
| 1777688243 | 17.78° C | 57% | 1015 hPa | - | - | 0 W/m² | - |
| 1777686421 | 18.33° C | 63% | 1014 hPa | - | - | 0 W/m² | - |
| 1777684599 | 18.89° C | 70% | 1013 hPa | - | - | 0 W/m² | - |
| 1777684531 | 18.89° C | 70% | 1013 hPa | - | - | 0 W/m² | - |
| 1777682709 | 19.44° C | 72% | 1013 hPa | - | - | 0 W/m² | - |
| 1777680887 | 20° C | 70% | 1012 hPa | - | - | 0 W/m² | - |
| 1777679065 | 20° C | 70% | 1012 hPa | - | - | 0 W/m² | - |
| 1777677243 | 20.56° C | 70% | 1011 hPa | - | - | 0 W/m² | - |
| 1777675421 | 20° C | 74% | 1010 hPa | - | - | 0 W/m² | - |
| 1777673599 | 20.56° C | 73% | 1010 hPa | - | - | 0 W/m² | - |
| 1777671777 | 20.56° C | 72% | 1009 hPa | - | - | 0 W/m² | - |
| 1777669955 | 21.11° C | 68% | 1009 hPa | - | - | 0 W/m² | - |
| 1777668132 | 21.67° C | 65% | 1008 hPa | - | - | 0 W/m² | - |
| 1777666310 | 22.22° C | 65% | 1008 hPa | - | - | 0 W/m² | - |
| 1777664488 | 22.22° C | 65% | 1008 hPa | - | - | 0 W/m² | - |
| 1777662666 | 22.22° C | 64% | 1008 hPa | - | - | 0 W/m² | - |
| 1777660844 | 21.67° C | 65% | 1008 hPa | - | - | 0 W/m² | - |
* Rain since midnight (hover to see other rain measurements)
** Current wind speed in m/s (hover to see current wind gust speed)